[[{"header":{"parameterUnit":"m.s-1","parameterCategory":1,"la1":30.2991,"la2":30.254,"lo1":-89.0895,"lo2":-89.0444,"dy":0.0017,"dx":0.0017,"nx":28,"ny":28,"refTime":"2024-08-06T03:00:00:Z","depth":0,"parameterNumber":2,"parameterNumberName":"U-component_of_WINDS"},"data":[0,0,0,0,0,0,0,0,0,0,0,0,0,0,0,0,0,0,0,0,0,0,0,0,0,0,0,0,0,0,0,0,0,0,0,0,0,0,0,0,0,0,0,0,0,0,0,0,0,0,0,0,0,0,0,0,0,0,2.1589,2.1589,0,2.1644,2.1645,2.1646,2.1616,2.1614,2.1613,2.1611,2.1669,2.1672,2.1675,0,0,0,0,0,0,0,0,0,0,0,0,0,2.1459,2.1462,2.1589,2.1589,2.159,2.1644,2.1645,2.1646,2.1616,2.1614,2.1612,2.161,2.1668,2.1672,2.1676,0,0,0,0,0,0,0,0,0,0,0,0,0,2.1515,2.1462,2.1589,2.1582,2.1582,2.1644,2.1645,2.1646,2.1616,2.1614,2.1612,2.161,2.1667,2.1672,2.1676,2.1749,0,0,2.169,2.1691,0,0,0,0,0,0,0,0,2.1512,2.152,2.1582,2.1582,2.1582,2.1621,2.162,2.168,2.1617,2.1603,2.1611,2.1608,2.1655,2.166,2.1676,2.1752,2.1754,2.169,2.1693,2.1695,2.1696,0,0,0,0,0,0,0,2.1508,2.1517,2.1611,2.1583,2.1583,2.1577,2.1582,2.1632,2.1641,2.1604,2.1602,2.1609,2.1655,2.1672,2.1677,2.1755,2.169,2.1694,2.1697,2.1698,2.1894,2.1896,0,0,0,0,0,0,2.1504,2.1514,2.1609,2.1612,2.1541,2.1581,2.1587,2.1611,2.1641,2.1643,2.1611,2.1607,2.1665,2.1672,2.1679,2.1767,2.1695,2.1699,2.1701,2.1891,2.1894,2.1897,0,0,0,0,0,0,2.1502,2.1513,2.1607,2.1563,2.1574,2.1585,2.1612,2.1613,2.163,2.1646,2.1647,2.1626,2.1664,2.1673,2.1732,2.1768,2.1701,2.1705,2.1888,2.1892,2.1896,2.1942,0,0,0,0,0,0,2.1498,2.1512,2.154,2.1564,2.1577,2.1658,2.1615,2.1616,2.1637,2.1633,2.1661,2.1663,2.1663,2.1725,2.1736,2.1773,2.1708,2.1885,2.189,2.1895,2.1937,2.1947,2.1955,0,0,0,0,0,2.1494,2.1551,2.1541,2.1553,2.1611,2.166,2.1668,2.1666,2.164,2.1668,2.1679,2.1662,2.1762,2.1732,2.1744,2.1782,2.1883,2.1889,2.1894,2.1933,2.1945,2.1955,0,0,0,0,0,0,2.1531,2.1554,2.1543,2.161,2.1633,2.1655,2.169,2.1678,2.171,2.1705,2.1702,2.1708,2.177,2.1782,2.1747,2.1855,2.1819,2.1827,2.1844,2.1856,2.1865,2.186,2.1712,0,0,0,0,0,2.1547,2.1585,2.1602,2.166,2.1672,2.1679,2.1701,2.1697,2.1721,2.1731,2.1746,2.1771,2.1808,2.1832,2.1868,2.1939,2.1945,2.1972,2.1981,2.1988,2.1995,2.2035,2.2047,2.1916,2.1916,2.1916,0,0,2.158,2.1597,2.1621,2.1667,2.1685,2.1725,2.1688,2.1731,2.1761,2.1738,2.1795,2.1806,2.1834,2.19,2.1929,2.1912,2.2033,2.1995,2.2001,2.2004,2.2042,2.2054,2.2065,2.192,2.1919,2.1918,0,0,2.1662,2.1678,2.1728,2.1746,2.1773,2.1778,2.179,2.1814,2.1821,2.1877,2.1861,2.1897,2.1961,2.1981,2.2,2.209,2.2076,2.2101,2.2148,2.2186,2.2197,2.2206,2.2238,2.225,2.2108,2.2109,2.2109,0,2.17,2.1758,2.1755,2.1799,2.182,2.1801,2.1852,2.187,2.1908,2.1923,2.1903,2.1983,2.2,2.2071,2.2093,2.2109,2.2123,2.2098,2.2195,2.2205,2.2213,2.2244,2.2256,2.2111,2.2111,2.2111,2.2111,0,2.1804,2.1845,2.1882,2.1919,2.1944,2.1991,2.1995,2.2021,2.2016,2.2023,2.2081,2.2101,2.214,2.2157,2.2152,2.2227,2.2215,2.2195,2.2159,2.2229,2.2258,2.2269,2.2116,2.2115,2.2114,2.2113,0,0,2.1911,2.1945,2.1958,2.1975,2.2004,2.2036,2.2083,2.212,2.2143,2.217,2.2209,2.2264,2.2246,2.2268,2.2265,2.2299,2.2369,2.2275,2.2275,2.2292,2.2454,2.2469,2.2483,2.236,2.2362,2.2364,2.2452,0,2.1994,2.2076,2.2074,2.215,2.2188,2.2171,2.2212,2.2234,2.2242,2.2276,2.2285,2.2324,2.2297,2.231,2.2343,2.2354,2.2402,2.2347,2.2398,2.24,2.2391,2.2498,2.2513,2.2595,2.2463,2.2465,2.2466,0,2.2103,2.2132,2.2212,2.2236,2.2252,2.2288,2.2323,2.2356,2.2381,2.2385,2.2409,2.2401,2.245,2.2412,2.2479,2.2442,2.2463,2.2472,2.2475,2.248,2.2437,2.2506,2.2621,2.2633,2.2484,2.2483,2.2481,0,2.2173,2.2233,2.2288,2.2303,2.2332,2.2358,2.2372,2.2395,2.2418,2.2449,2.2464,2.25,2.252,2.2548,2.2551,2.2523,2.2619,2.2581,2.2623,2.2623,2.2644,2.2643,2.2765,2.2657,2.2657,2.2657,2.2657,0,2.2266,2.2316,2.232,2.2355,2.241,2.2408,2.2463,2.2474,2.2495,2.2531,2.2519,2.2553,2.2554,2.259,2.2593,2.2648,2.2657,2.2662,2.2662,2.2663,2.2663,2.2677,2.2671,2.266,2.266,2.2659,2.2658,0,2.2354,2.2359,2.2419,2.2441,2.2448,2.2488,2.2507,2.254,2.2547,2.2593,2.2604,2.2615,2.2657,2.2662,2.2711,2.2712,2.2779,2.2773,2.2771,2.277,2.2812,2.2808,2.2947,2.2966,2.2846,2.2847,2.2848,0,2.2414,2.2451,2.2478,2.2501,2.2516,2.2553,2.2577,2.2576,2.2601,2.2633,2.2663,2.2703,2.2735,2.2802,2.2815,2.2853,2.2848,2.2894,2.2853,2.2853,2.2849,2.2847,2.2851,2.2902,2.2903,2.2904,2.2905,0,2.2519,2.252,2.2553,2.2588,2.2616,2.2644,2.267,2.269,2.2692,2.2721,2.2763,2.2788,2.2838,2.2878,2.2915,2.293,2.2918,2.2918,2.293,2.2931,2.2928,2.2931,2.2792,2.2915,2.2914,2.2913,2.2912,2.2912,2.2595,2.2628,2.2651,2.2689,2.2709,2.2733,2.2765,2.2776,2.2811,2.2851,2.2848,2.2895,2.292,2.2969,2.2986,2.3023,2.3008,2.3025,2.3029,2.3034,2.3038,2.2922,2.303,2.3029,2.3029,2.3029,2.3029,0,2.27,2.2714,2.2749,2.2786,2.2816,2.2802,2.283,2.2856,2.2897,2.2921,2.2953,2.3002,2.3041,2.3057,2.3095,2.3122,2.3118,2.3132,2.313,2.3134,2.3049,2.3035,2.3135,2.3135,2.3135,2.3135,2.3135,2.3135,2.2758,2.2813,2.2817,2.2881,2.2895,2.294,2.2957,2.298,2.3,2.3054,2.3086,2.3096,2.3118,2.3158,2.3193,2.3197,2.3212,2.3229,2.323,2.3151,2.314,2.313,2.3117,2.3232,2.3232,2.3312,2.3313,2.3314]},{"header":{"parameterUnit":"m.s-1","parameterCategory":1,"la1":30.2991,"la2":30.254,"lo1":-89.0895,"lo2":-89.0444,"dy":0.0017,"dx":0.0017,"nx":28,"ny":28,"refTime":"2024-08-06T03:00:00:Z","depth":0,"parameterNumber":3,"parameterNumberName":"V-component_of_WINDS"},"data":[0,0,0,0,0,0,0,0,0,0,0,0,0,0,0,0,0,0,0,0,0,0,0,0,0,0,0,0,0,0,0,0,0,0,0,0,0,0,0,0,0,0,0,0,0,0,0,0,0,0,0,0,0,0,0,0,0,0,-1.7246,-1.7246,0,-1.7298,-1.7299,-1.73,-1.7297,-1.7297,-1.7296,-1.7295,-1.7348,-1.735,-1.7352,0,0,0,0,0,0,0,0,0,0,0,0,0,-1.7141,-1.7143,-1.7245,-1.7246,-1.7247,-1.7298,-1.7299,-1.73,-1.7297,-1.7297,-1.7296,-1.7295,-1.7347,-1.7349,-1.7352,0,0,0,0,0,0,0,0,0,0,0,0,0,-1.7189,-1.7143,-1.7245,-1.7252,-1.7253,-1.7298,-1.7299,-1.73,-1.7298,-1.7297,-1.7295,-1.7294,-1.7346,-1.7349,-1.7352,-1.7394,0,0,-1.7362,-1.7363,0,0,0,0,0,0,0,0,-1.7186,-1.7193,-1.725,-1.7252,-1.7253,-1.729,-1.7281,-1.7331,-1.7298,-1.7281,-1.7295,-1.7294,-1.7329,-1.7334,-1.7346,-1.7396,-1.7399,-1.7362,-1.7364,-1.7365,-1.7366,0,0,0,0,0,0,0,-1.7183,-1.7191,-1.7266,-1.7251,-1.7253,-1.7252,-1.7257,-1.7291,-1.7311,-1.7282,-1.7282,-1.7288,-1.733,-1.7343,-1.7347,-1.7399,-1.7362,-1.7365,-1.7367,-1.7368,-1.7486,-1.7487,0,0,0,0,0,0,-1.7179,-1.7188,-1.7265,-1.7268,-1.7216,-1.7254,-1.7261,-1.7279,-1.731,-1.7314,-1.7289,-1.7288,-1.7338,-1.7344,-1.7349,-1.74,-1.7365,-1.7368,-1.737,-1.7485,-1.7486,-1.7488,0,0,0,0,0,0,-1.7176,-1.7185,-1.7263,-1.7228,-1.7238,-1.7257,-1.7278,-1.7281,-1.7294,-1.7316,-1.7319,-1.7299,-1.7338,-1.7345,-1.7383,-1.7402,-1.737,-1.7373,-1.7483,-1.7485,-1.7487,-1.7501,0,0,0,0,0,0,-1.7173,-1.7185,-1.7201,-1.7228,-1.724,-1.7296,-1.7279,-1.7283,-1.73,-1.7299,-1.7326,-1.7329,-1.7337,-1.7378,-1.7386,-1.7405,-1.7375,-1.7482,-1.7484,-1.7487,-1.7499,-1.7504,-1.7507,0,0,0,0,0,-1.717,-1.7203,-1.7202,-1.7211,-1.7261,-1.7297,-1.7303,-1.7312,-1.7301,-1.7318,-1.7332,-1.7329,-1.7398,-1.7382,-1.7391,-1.7411,-1.7481,-1.7484,-1.7486,-1.7498,-1.7503,-1.7507,0,0,0,0,0,0,-1.7176,-1.7206,-1.7206,-1.7249,-1.727,-1.7297,-1.7318,-1.7317,-1.7342,-1.734,-1.7349,-1.7356,-1.7394,-1.7406,-1.7388,-1.7453,-1.7438,-1.7443,-1.7444,-1.7449,-1.7452,-1.7448,-1.7378,0,0,0,0,0,-1.7183,-1.721,-1.7235,-1.727,-1.7281,-1.7298,-1.7314,-1.7319,-1.7341,-1.735,-1.7367,-1.7389,-1.7415,-1.7433,-1.7459,-1.7501,-1.7507,-1.752,-1.7524,-1.7527,-1.7531,-1.7554,-1.756,-1.7497,-1.7497,-1.7497,0,0,-1.7196,-1.7216,-1.7233,-1.7272,-1.729,-1.7318,-1.7305,-1.7335,-1.7356,-1.7355,-1.7392,-1.7405,-1.743,-1.747,-1.7489,-1.7482,-1.7549,-1.753,-1.7533,-1.7535,-1.7557,-1.7563,-1.7569,-1.7499,-1.7499,-1.7498,0,0,-1.7236,-1.7254,-1.7285,-1.7303,-1.733,-1.734,-1.7348,-1.7374,-1.7383,-1.742,-1.742,-1.7444,-1.749,-1.7508,-1.7523,-1.7569,-1.7567,-1.7577,-1.7597,-1.762,-1.7625,-1.7629,-1.7645,-1.7651,-1.7581,-1.7581,-1.7581,0,-1.7249,-1.7292,-1.7301,-1.7332,-1.7349,-1.735,-1.7381,-1.7398,-1.7431,-1.7443,-1.7435,-1.7493,-1.7509,-1.7554,-1.7565,-1.7577,-1.7586,-1.7574,-1.7624,-1.7628,-1.7632,-1.7648,-1.7654,-1.7582,-1.7582,-1.7582,-1.7582,0,-1.7307,-1.7336,-1.7358,-1.7391,-1.7411,-1.7442,-1.7455,-1.7474,-1.7477,-1.7489,-1.7527,-1.7547,-1.7577,-1.7588,-1.7591,-1.7633,-1.7628,-1.7622,-1.7606,-1.7639,-1.7654,-1.766,-1.7583,-1.7583,-1.7583,-1.7583,0,0,-1.7351,-1.7389,-1.7397,-1.7412,-1.7442,-1.7465,-1.7495,-1.7525,-1.7541,-1.7564,-1.7589,-1.7629,-1.7623,-1.764,-1.7645,-1.7665,-1.77,-1.7656,-1.7657,-1.7664,-1.7747,-1.7751,-1.7758,-1.7699,-1.77,-1.7701,-1.7745,0,-1.7393,-1.7448,-1.7458,-1.7506,-1.7533,-1.7534,-1.7561,-1.7582,-1.7593,-1.7617,-1.763,-1.7657,-1.7648,-1.7658,-1.7678,-1.7692,-1.7717,-1.7689,-1.7723,-1.7724,-1.7716,-1.7766,-1.7771,-1.7811,-1.7751,-1.7752,-1.7752,0,-1.745,-1.7475,-1.7526,-1.7552,-1.7563,-1.7587,-1.7615,-1.7639,-1.7662,-1.7669,-1.7688,-1.7691,-1.7723,-1.7706,-1.775,-1.773,-1.7745,-1.7753,-1.7755,-1.7758,-1.774,-1.777,-1.7824,-1.783,-1.7762,-1.7761,-1.776,0,-1.7477,-1.7523,-1.756,-1.7572,-1.7604,-1.762,-1.7634,-1.7656,-1.7674,-1.7698,-1.7709,-1.7737,-1.7752,-1.7773,-1.7783,-1.777,-1.7826,-1.781,-1.7832,-1.7831,-1.7843,-1.7842,-1.79,-1.7853,-1.7853,-1.7853,-1.7852,0,-1.7523,-1.7554,-1.7572,-1.7595,-1.7629,-1.764,-1.7674,-1.7687,-1.7707,-1.7731,-1.7734,-1.7757,-1.7769,-1.7794,-1.7802,-1.7836,-1.7843,-1.7849,-1.7851,-1.7849,-1.7848,-1.7858,-1.7855,-1.7854,-1.7854,-1.7853,-1.7853,0,-1.7559,-1.7573,-1.7612,-1.7639,-1.7646,-1.767,-1.7693,-1.7714,-1.7726,-1.7757,-1.7765,-1.7782,-1.7811,-1.7824,-1.786,-1.7865,-1.7904,-1.7904,-1.7897,-1.7897,-1.7918,-1.7916,-1.7984,-1.7993,-1.794,-1.7941,-1.7941,0,-1.7587,-1.7611,-1.764,-1.7657,-1.7671,-1.7698,-1.7716,-1.7727,-1.7746,-1.7774,-1.7792,-1.7821,-1.7845,-1.7892,-1.7907,-1.7935,-1.7935,-1.7957,-1.7939,-1.7936,-1.7935,-1.7933,-1.7936,-1.796,-1.7961,-1.7961,-1.7961,0,-1.7636,-1.7641,-1.7667,-1.7695,-1.7717,-1.7739,-1.7762,-1.7775,-1.7789,-1.781,-1.784,-1.7859,-1.7895,-1.7924,-1.7952,-1.7966,-1.7966,-1.7967,-1.7973,-1.7971,-1.7966,-1.7969,-1.7905,-1.7965,-1.7965,-1.7965,-1.7964,-1.7964,-1.7669,-1.769,-1.7714,-1.7742,-1.776,-1.7781,-1.7802,-1.7817,-1.7842,-1.7873,-1.7878,-1.791,-1.7933,-1.7971,-1.7985,-1.801,-1.8005,-1.8014,-1.8016,-1.8018,-1.8019,-1.7962,-1.8015,-1.8015,-1.8015,-1.8015,-1.8015,0,-1.7717,-1.7733,-1.7759,-1.779,-1.7812,-1.7811,-1.7835,-1.7854,-1.7883,-1.7904,-1.7928,-1.7962,-1.799,-1.8008,-1.8036,-1.8053,-1.8054,-1.806,-1.8059,-1.8062,-1.8023,-1.8014,-1.8059,-1.8059,-1.8059,-1.8059,-1.8059,-1.8059,-1.7745,-1.7781,-1.7789,-1.7834,-1.7849,-1.7881,-1.7895,-1.7914,-1.7931,-1.797,-1.7993,-1.8005,-1.8025,-1.8054,-1.808,-1.8085,-1.8095,-1.8101,-1.8105,-1.8069,-1.8064,-1.806,-1.8052,-1.8103,-1.8104,-1.8142,-1.8142,-1.8143]}]]